Date,TemperatureHighF,TemperatureAvgF,TemperatureLowF,DewpointHighF,DewpointAvgF,DewpointLowF,HumidityHigh,HumidityAvg,HumidityLow,PressureMaxIn,PressureMinIn,WindSpeedMaxMPH,WindSpeedAvgMPH,GustSpeedMaxMPH,PrecipitationSumIn
2013-1-1,37.2,30.4,26.3,36.7,30.2,26.3,100,99,93,30.12,30.01,3,0,9,0.01
2013-1-2,40.8,31.4,26.9,32.0,28.0,26.1,100,88,68,30.01,29.86,6,1,8,0.00
2013-1-3,39.7,32.1,25.9,33.1,28.5,24.8,96,87,66,29.92,29.81,3,0,7,0.00
2013-1-4,43.1,38.6,34.9,43.1,38.0,32.3,100,98,89,30.00,29.86,3,0,6,0.00
2013-1-5,40.2,36.4,34.2,38.3,35.6,34.2,100,97,85,29.89,29.84,2,0,6,0.01
2013-1-6,44.8,38.0,34.0,44.8,38.0,34.0,100,100,100,29.91,29.75,4,0,13,0.05
2013-1-7,51.9,47.6,44.7,51.9,47.3,44.7,100,99,93,29.90,29.67,9,4,13,0.18
2013-1-8,54.1,50.5,44.6,51.5,48.9,44.6,100,94,82,29.90,29.60,8,4,18,0.02
2013-1-9,51.9,41.8,32.8,46.5,40.0,32.8,100,94,79,29.66,29.41,9,4,16,0.24
2013-1-10,39.6,35.5,31.9,39.6,35.5,31.9,100,100,100,29.78,29.65,4,1,6,0.06
2013-1-11,33.6,29.0,25.4,33.6,29.0,25.4,100,100,100,29.97,29.77,6,1,8,0.00
2013-1-12,30.7,25.4,19.6,30.7,25.4,19.6,100,100,100,30.07,29.97,3,0,5,0.00
2013-1-13,29.3,26.5,20.9,29.3,26.5,19.8,100,100,100,30.16,30.06,2,0,3,0.00
2013-1-14,32.5,29.7,26.2,32.5,29.7,26.2,100,100,100,30.22,30.15,3,0,6,0.01
2013-1-15,40.2,35.0,31.6,40.2,35.0,31.6,100,100,100,30.33,30.22,2,0,6,0.01
2013-1-16,34.9,33.4,31.4,34.9,33.4,31.4,100,100,100,30.32,30.16,3,0,4,0.00
2013-1-17,39.1,32.1,28.2,39.1,32.1,28.2,100,100,100,30.16,29.98,3,0,6,0.00
2013-1-18,32.0,29.0,26.5,32.0,29.0,26.5,100,100,100,29.99,29.94,3,0,6,0.00
2013-1-19,33.0,29.4,27.0,33.0,29.4,27.0,100,100,100,30.01,29.95,3,0,4,0.01
2013-1-20,34.6,29.6,26.6,34.6,29.6,26.6,100,100,100,30.02,29.91,4,1,6,0.00
2013-1-21,33.7,28.2,25.9,33.7,28.2,25.9,100,100,100,29.94,29.82,4,0,6,0.00
2013-1-22,35.8,29.4,24.6,35.8,29.4,24.6,100,100,100,29.83,29.61,4,0,6,0.00
2013-1-23,35.6,33.4,31.5,35.6,33.4,31.5,100,100,100,29.87,29.57,4,0,5,0.24
2013-1-24,38.2,36.1,33.2,38.2,36.1,33.2,100,100,100,29.90,29.79,3,0,6,0.16
2013-1-25,51.2,41.5,33.7,51.2,41.5,33.7,100,100,100,29.81,29.64,3,0,4,0.03
2013-1-26,45.5,39.0,34.1,44.9,38.9,33.7,100,100,93,29.77,29.61,6,1,8,0.14
2013-1-27,42.4,38.4,32.2,42.4,38.4,32.2,100,100,100,29.83,29.73,4,2,7,0.13
2013-1-28,44.9,42.3,37.5,44.9,42.3,37.5,100,100,100,29.90,29.76,7,4,9,0.01
2013-1-29,48.5,45.8,44.1,47.8,45.6,43.9,100,99,93,30.17,29.90,8,5,9,0.01
2013-1-30,54.4,48.1,43.7,51.3,47.7,43.7,100,99,87,30.16,30.12,8,5,9,0.00
2013-1-31,55.4,48.4,41.9,52.9,46.3,41.9,100,93,71,30.14,30.02,5,1,6,0.01
2013-2-1,53.6,46.0,40.5,50.2,45.0,40.5,100,96,80,30.04,29.95,2,0,7,0.00
2013-2-2,51.6,41.0,33.1,47.3,39.7,33.1,100,96,74,29.99,29.94,4,1,6,0.00
2013-2-3,46.6,40.8,31.9,46.6,40.8,31.9,100,100,100,30.01,29.91,2,0,5,0.00
2013-2-4,50.2,44.3,40.7,50.2,43.9,40.7,100,99,87,29.92,29.63,3,0,6,0.00
2013-2-5,50.8,43.9,39.3,50.8,43.9,39.3,100,100,96,29.73,29.60,7,3,9,0.28
2013-2-6,51.4,45.2,40.0,46.3,43.7,40.0,100,95,80,29.78,29.54,7,3,13,0.13
2013-2-7,48.5,39.0,33.1,48.0,38.2,33.1,100,98,73,29.82,29.61,7,1,10,0.06
2013-2-8,43.6,35.6,28.6,43.6,35.6,28.6,100,100,100,29.96,29.82,7,1,7,0.01
2013-2-9,45.9,39.8,34.5,45.9,39.8,34.5,100,100,99,30.00,29.94,2,0,6,0.05
2013-2-10,47.7,42.7,40.1,47.7,42.2,38.9,100,98,90,30.03,29.99,3,0,6,0.01
2013-2-11,48.1,43.3,39.7,45.4,42.0,39.7,100,96,78,30.09,30.01,3,0,8,0.01
2013-2-12,55.4,48.3,41.8,51.6,47.1,41.8,100,96,78,30.16,30.09,7,3,9,0.00
2013-2-13,51.9,48.2,44.7,51.1,46.4,43.6,100,94,77,30.21,30.12,7,2,8,0.01
2013-2-14,56.1,47.3,37.8,52.7,45.1,37.8,100,93,73,30.25,30.18,4,1,6,0.00
2013-2-15,58.2,48.3,39.4,51.1,45.4,39.4,100,91,68,30.18,29.90,6,1,8,0.00
2013-2-16,52.3,44.0,36.7,50.9,42.1,36.7,100,93,67,29.96,29.89,9,3,10,0.00
2013-2-17,50.8,40.5,32.9,49.4,36.6,32.9,100,88,63,29.97,29.77,3,1,7,0.00
2013-2-18,48.3,39.8,32.4,43.5,38.0,32.4,100,94,66,29.77,29.41,5,1,9,0.04
2013-2-19,53.2,41.3,33.9,49.9,39.1,33.9,100,93,59,29.67,29.35,6,2,9,0.01
2013-2-20,48.9,39.3,32.7,47.9,38.6,32.7,100,97,75,29.77,29.67,6,2,7,0.09
2013-2-21,45.3,41.1,37.5,44.7,41.0,37.5,100,99,90,29.88,29.77,7,4,9,0.14
2013-2-22,45.9,43.0,38.2,45.8,42.7,38.2,100,99,91,29.86,29.58,10,4,11,0.64
2013-2-23,47.9,39.0,33.9,44.6,37.6,33.9,100,95,68,30.10,29.75,6,3,11,0.06
2013-2-24,53.6,43.8,34.9,47.8,37.0,32.9,100,80,49,30.10,29.75,8,1,11,0.00
2013-2-25,49.3,42.2,34.8,46.1,39.9,34.8,100,92,60,30.06,29.71,10,4,13,0.24
2013-2-26,50.6,39.8,30.4,45.6,37.6,30.4,100,92,69,30.06,29.92,6,1,10,0.00
2013-2-27,51.6,45.6,39.6,46.8,43.4,39.6,100,93,73,29.99,29.91,6,1,14,0.01
2013-2-28,59.1,53.4,45.9,55.8,52.6,45.8,100,97,85,30.13,29.88,7,4,14,0.00
2013-3-1,60.5,53.4,44.7,54.8,51.5,44.0,100,94,76,30.14,30.00,11,2,11,0.00
2013-3-2,55.5,48.7,38.0,52.9,47.2,38.0,100,95,89,30.00,29.87,7,2,9,0.00
2013-3-3,52.7,40.2,30.5,46.9,35.6,30.5,100,86,52,30.00,29.91,5,2,9,0.00
2013-3-4,58.4,42.3,30.7,43.9,34.8,30.4,100,79,38,29.91,29.58,6,2,8,0.00
2013-3-5,47.5,41.8,34.6,47.5,41.8,34.6,100,100,98,29.58,29.32,4,1,10,0.45
2013-3-6,44.6,41.7,37.8,44.6,40.8,37.5,100,97,86,29.64,29.23,5,1,11,0.39
2013-3-7,57.8,41.8,32.2,49.9,38.3,31.5,100,89,54,29.74,29.64,4,1,8,0.01
2013-3-8,61.9,43.6,32.2,51.6,39.5,32.0,100,88,49,29.89,29.70,5,2,9,0.00
2013-3-9,62.9,43.9,31.0,48.2,39.2,31.0,100,86,51,30.17,29.89,7,2,11,0.00
2013-3-10,52.9,44.4,34.5,50.9,43.1,34.5,100,95,73,30.17,30.10,3,0,6,0.00
2013-3-11,55.9,47.5,41.2,53.5,46.5,40.7,100,96,89,30.11,29.94,6,1,8,0.00
2013-3-12,61.6,52.6,45.8,53.6,47.6,43.7,100,84,59,29.94,29.86,6,2,10,0.00
2013-3-13,65.9,56.4,47.4,54.8,51.2,45.8,100,84,62,29.91,29.79,5,2,9,0.00
2013-3-14,56.3,51.7,45.3,51.3,48.4,44.5,100,89,66,29.90,29.75,6,2,9,0.00
2013-3-15,65.9,53.4,44.0,56.3,48.9,43.2,100,87,53,29.93,29.87,7,2,9,0.00
2013-3-16,50.6,45.0,37.0,49.3,44.9,37.0,100,100,89,29.87,29.72,8,3,11,0.17
2013-3-17,50.2,41.8,35.2,42.1,37.8,35.2,100,87,61,29.98,29.84,8,4,13,0.01
2013-3-18,56.3,42.1,31.7,44.9,37.0,31.7,100,85,48,29.97,29.83,6,1,10,0.00
2013-3-19,45.8,41.9,36.3,45.4,41.2,36.3,100,98,86,29.83,29.34,4,0,7,0.60
2013-3-20,51.6,47.0,35.9,49.6,44.7,35.9,100,92,72,29.84,29.23,12,6,21,0.42
2013-3-21,50.1,40.5,34.7,43.6,37.6,34.5,100,91,55,29.98,29.84,9,4,12,0.08
2013-3-22,51.2,40.8,32.8,42.8,37.5,32.3,100,89,57,30.06,29.97,7,2,10,0.09
2013-3-23,52.2,38.5,31.8,42.2,34.2,30.4,100,86,48,30.06,29.94,4,1,8,0.00
2013-3-24,58.8,44.5,33.7,41.4,37.4,33.7,100,79,45,29.94,29.77,5,1,9,0.00
2013-3-25,59.1,46.9,38.8,43.8,38.6,34.3,98,75,44,29.77,29.62,5,2,9,0.00
2013-3-26,54.1,46.5,39.1,50.9,45.5,39.1,100,97,82,29.72,29.65,5,0,7,0.01
2013-3-27,63.2,49.7,41.9,53.3,46.2,39.0,100,89,60,29.69,29.61,6,1,10,0.00
2013-3-28,68.5,55.3,43.9,56.5,49.0,41.3,100,82,47,29.84,29.69,7,2,9,0.00
2013-3-29,72.7,56.1,46.5,56.9,50.7,45.9,100,85,45,29.91,29.84,7,2,9,0.02
2013-3-30,79.4,59.9,44.4,55.9,50.1,44.4,100,75,37,29.87,29.67,5,2,9,0.00
2013-3-31,74.3,59.4,44.5,55.7,50.6,44.5,100,75,48,29.72,29.65,9,3,11,0.00
2013-4-1,66.2,57.0,48.5,55.6,51.6,48.5,100,84,62,29.87,29.72,7,4,10,0.00
2013-4-2,67.0,53.9,46.5,53.7,49.6,46.5,100,87,51,29.92,29.84,6,2,9,0.00
2013-4-3,64.5,53.5,42.1,57.1,50.6,40.3,100,91,70,29.86,29.62,5,1,7,0.00
2013-4-4,60.4,55.5,52.9,59.2,54.8,51.3,100,98,84,29.62,29.40,7,2,14,0.24
2013-4-5,60.5,53.1,50.5,54.9,52.1,49.1,100,97,72,29.66,29.51,8,4,17,0.28
2013-4-6,56.7,49.4,46.4,53.6,47.6,43.2,100,94,77,29.70,29.38,7,3,17,0.75
2013-4-7,50.8,47.3,40.9,50.6,46.0,40.9,100,95,87,29.66,29.26,13,6,20,0.16
2013-4-8,55.4,46.9,38.5,47.6,42.8,38.5,100,87,64,29.97,29.66,8,3,12,0.02
2013-4-9,58.4,47.6,38.5,51.5,45.0,38.5,100,92,66,30.06,29.94,4,1,9,0.00
2013-4-10,60.3,53.2,43.6,55.6,48.5,40.2,100,85,62,30.03,29.82,10,4,15,0.04
2013-4-11,59.5,49.3,37.0,50.2,42.8,37.0,100,81,51,30.04,29.86,7,1,8,0.00
2013-4-12,53.9,45.5,34.9,46.8,42.1,34.9,100,89,69,29.86,29.56,9,2,13,0.05
2013-4-13,52.6,45.1,37.7,41.9,39.4,35.1,100,82,54,29.79,29.62,9,4,16,0.04
2013-4-14,52.8,44.0,38.9,43.6,41.4,38.9,100,92,61,29.77,29.64,8,2,10,0.01
2013-4-15,58.9,46.4,35.6,50.9,39.6,35.6,100,80,46,29.86,29.63,8,2,10,0.00
2013-4-16,61.6,47.0,34.7,46.6,40.9,34.7,100,82,51,30.08,29.86,9,2,10,0.00
2013-4-17,60.8,46.8,35.3,47.6,41.0,35.3,100,83,48,30.19,30.08,7,2,9,0.00
2013-4-18,62.7,52.9,43.8,49.1,45.8,42.5,100,79,54,30.17,30.02,6,2,11,0.00
2013-4-19,58.5,51.5,45.1,56.7,50.4,45.1,100,96,79,30.02,29.86,9,4,13,0.16
2013-4-20,61.9,52.2,45.4,49.1,46.0,43.1,100,81,56,30.05,29.98,6,4,11,0.00
2013-4-21,58.2,50.4,45.1,49.3,46.2,44.0,100,86,68,30.01,29.94,6,2,10,0.00
2013-4-22,70.2,53.1,37.9,47.5,39.1,32.2,100,65,25,30.12,30.01,4,1,15,0.00
2013-4-23,74.7,55.4,39.8,40.6,36.8,31.1,85,55,21,30.06,29.86,5,2,10,0.00
2013-4-24,77.8,59.4,42.2,41.3,36.9,31.2,78,48,19,29.92,29.72,7,2,13,0.00
2013-4-25,78.1,60.0,43.3,50.3,44.6,38.9,94,61,32,29.86,29.72,5,2,8,0.00
2013-4-26,81.2,62.6,43.4,57.9,46.3,36.2,100,61,20,29.96,29.86,6,2,7,0.00
2013-4-27,74.0,58.2,41.9,49.1,42.2,36.7,97,60,27,29.98,29.91,7,3,11,0.00
2013-4-28,68.4,58.2,48.2,53.6,46.3,40.4,100,68,39,29.98,29.81,7,4,12,0.00
2013-4-29,60.9,52.1,37.3,51.2,41.0,32.9,100,69,39,29.92,29.78,9,4,13,0.03
2013-4-30,62.5,45.7,33.5,46.1,36.3,33.5,100,74,35,30.12,29.92,6,1,9,0.00
2013-5-1,71.3,52.2,33.5,43.0,37.8,32.5,100,65,24,30.21,30.12,6,1,9,0.00
2013-5-2,80.1,60.7,44.2,45.1,39.6,34.7,75,49,24,30.14,29.96,5,1,9,0.00
2013-5-3,80.8,63.1,44.5,48.8,42.3,36.5,78,50,29,29.99,29.84,7,2,10,0.00
2013-5-4,85.9,66.8,50.0,51.2,42.9,35.4,83,47,18,29.84,29.61,7,1,19,0.00
2013-5-5,88.9,69.9,49.5,49.6,42.2,37.5,72,42,17,29.61,29.43,10,2,13,0.00
2013-5-6,84.8,63.3,46.5,57.4,50.3,44.6,100,67,35,29.92,29.47,6,2,10,0.00
2013-5-7,73.3,58.6,48.5,54.1,51.0,48.5,100,79,46,30.05,29.91,8,2,15,0.00
2013-5-8,72.9,56.1,45.1,57.1,51.6,45.1,100,87,55,30.17,30.05,5,1,9,0.00
2013-5-9,84.6,64.0,45.2,59.3,52.8,45.1,100,72,36,30.22,30.12,5,1,8,0.00
2013-5-10,83.1,65.9,49.7,60.5,54.4,49.2,100,71,42,30.23,30.15,6,2,9,0.00
2013-5-11,85.7,68.4,51.1,61.5,56.5,49.8,100,69,36,30.21,30.06,7,2,9,0.00
2013-5-12,71.4,63.1,56.7,59.6,57.1,53.8,100,82,60,30.16,30.10,6,2,10,0.15
2013-5-13,67.9,57.4,48.2,62.1,51.6,45.2,100,82,58,30.24,30.07,8,2,12,0.01
2013-5-14,73.0,56.2,42.1,53.9,44.1,39.0,100,69,31,30.24,30.13,5,1,10,0.00
2013-5-15,59.9,53.6,45.4,55.0,50.3,42.9,100,89,77,30.13,30.04,5,1,10,0.07
2013-5-16,61.3,55.7,50.9,59.7,54.4,49.0,100,96,73,30.04,29.97,6,1,9,0.14
2013-5-17,67.9,54.3,44.6,58.8,48.4,43.9,100,83,51,30.12,30.01,5,1,9,0.01
2013-5-18,58.7,52.3,45.1,56.6,51.5,45.1,100,98,74,30.29,30.11,2,0,8,0.11
2013-5-19,66.9,57.8,47.8,59.4,51.7,47.8,100,82,56,30.43,30.29,6,1,10,0.16
2013-5-20,76.5,57.4,42.4,54.8,47.6,39.9,100,74,39,30.35,29.94,6,2,10,0.00
2013-5-21,55.9,48.1,41.9,52.1,46.7,41.9,100,95,78,29.99,29.86,8,3,12,0.21
2013-5-22,51.4,46.7,42.4,51.4,46.3,42.3,100,99,88,29.99,29.94,7,2,13,0.22
2013-5-23,54.6,49.3,45.1,53.9,48.9,45.1,100,99,83,30.02,29.97,7,1,13,0.79
2013-5-24,61.7,52.1,46.0,56.3,49.6,43.8,100,92,73,30.10,29.99,7,2,16,0.14
2013-5-25,71.6,58.2,48.1,54.8,50.7,48.1,100,79,49,30.09,29.96,6,1,13,0.15
2013-5-26,65.7,57.0,50.1,60.8,51.9,48.2,100,84,59,30.08,29.96,6,2,10,0.17
2013-5-27,68.1,56.7,50.6,63.1,53.7,50.1,100,91,64,30.01,29.76,9,2,21,0.47
2013-5-28,66.0,56.4,49.9,56.3,50.2,45.3,100,82,49,29.97,29.78,8,2,12,0.11
2013-5-29,64.1,54.6,48.9,56.3,51.2,48.3,100,89,61,30.08,29.64,10,4,14,0.31
2013-5-30,62.6,54.6,48.4,55.1,49.6,46.4,100,84,59,30.27,30.08,7,2,10,0.05
2013-5-31,71.3,56.4,47.7,53.9,49.0,45.0,100,79,43,30.35,30.26,4,1,9,0.00
2013-6-1,77.0,60.8,45.1,57.2,52.3,45.1,100,77,47,30.26,30.06,6,1,9,0.00
2013-6-2,74.2,60.6,50.4,55.1,52.7,49.9,100,78,50,30.11,30.06,5,1,9,0.00
2013-6-3,79.1,61.1,45.4,58.5,51.6,45.4,100,75,37,30.14,30.07,4,1,9,0.00
2013-6-4,85.7,64.4,46.0,59.4,52.7,46.0,100,71,31,30.12,30.01,3,1,8,0.00
2013-6-5,86.4,69.9,53.0,64.6,56.9,53.0,100,69,33,30.13,30.03,5,1,7,0.00
2013-6-6,86.8,68.4,52.6,64.5,57.3,50.5,100,72,38,30.09,30.03,5,2,9,0.00
2013-6-7,80.5,64.3,49.2,61.6,53.4,46.4,100,72,31,30.18,30.08,7,2,10,0.00
2013-6-8,81.6,63.6,47.2,57.3,50.4,46.0,100,67,32,30.20,30.09,5,1,10,0.00
2013-6-9,78.8,62.9,47.9,59.1,49.3,45.8,100,65,32,30.14,30.03,5,1,10,0.00
2013-6-10,74.3,57.8,42.8,54.7,46.8,42.8,100,71,39,30.06,29.94,6,2,10,0.00
2013-6-11,67.3,58.0,50.9,51.8,47.0,44.6,90,68,46,30.17,30.02,7,2,12,0.00
2013-6-12,66.4,58.3,51.5,53.5,48.9,45.9,98,72,54,30.21,30.16,7,2,11,0.00
2013-6-13,65.9,55.3,49.5,59.3,53.4,48.9,100,94,72,30.31,30.18,6,2,9,0.35
2013-6-14,71.8,57.5,45.0,58.9,50.8,45.0,100,81,50,30.31,30.01,4,1,9,0.00
2013-6-15,80.3,63.7,47.8,60.6,53.5,47.8,100,74,36,30.04,29.95,7,2,9,0.00
2013-6-16,76.2,62.3,48.9,58.8,54.3,48.9,100,78,50,30.14,30.04,6,2,10,0.00
2013-6-17,77.2,62.5,48.1,57.9,52.8,48.1,100,74,39,30.14,30.01,7,2,11,0.00
2013-6-18,69.1,57.4,47.7,59.5,51.2,47.7,100,82,55,30.04,29.98,6,1,15,0.13
2013-6-19,67.5,58.0,48.1,55.0,50.1,47.4,100,77,49,30.12,29.97,7,2,13,0.00
2013-6-20,71.1,58.4,50.7,61.6,52.9,48.7,100,84,51,30.16,30.09,6,1,9,0.19
2013-6-21,73.3,61.0,51.7,58.8,53.3,50.5,100,79,45,30.20,30.14,3,0,10,0.00
2013-6-22,80.9,65.5,49.6,61.9,53.8,49.6,100,70,37,30.14,29.89,6,1,8,0.00
2013-6-23,71.1,62.7,56.8,65.8,58.6,47.3,100,88,54,29.89,29.67,5,1,9,0.04
2013-6-24,67.9,60.5,54.4,60.7,56.1,52.3,100,87,59,29.75,29.67,6,1,13,0.09
2013-6-25,70.8,59.9,55.2,63.7,57.9,54.5,100,94,65,29.89,29.70,6,1,10,0.11
2013-6-26,74.7,64.2,57.5,64.1,59.6,57.5,100,87,56,30.08,29.88,6,1,10,0.03
2013-6-27,61.4,60.8,60.4,61.4,60.8,60.4,100,100,100,30.07,30.05,0,0,0,0.00
2013-6-29,90.7,80.6,67.2,66.5,61.7,58.7,88,55,35,30.15,30.02,3,1,8,0.00
2013-6-30,97.8,77.2,60.9,70.7,62.8,54.7,100,67,24,30.02,29.92,7,2,9,0.00
2013-7-1,93.8,75.7,60.9,69.6,63.7,60.0,100,70,40,30.05,29.95,5,1,8,0.00
2013-7-2,94.1,76.3,60.9,70.6,61.1,49.4,100,64,35,30.12,30.05,5,1,7,0.00
2013-7-3,89.9,71.9,55.8,57.1,51.7,43.9,100,56,24,30.18,30.08,5,2,10,0.00
2013-7-4,79.5,64.7,49.8,60.1,52.3,49.5,100,68,42,30.18,30.08,6,1,10,0.00
2013-7-5,79.1,64.0,48.0,60.3,52.3,48.0,100,70,40,30.10,29.99,5,1,10,0.00
2013-7-6,81.6,64.2,48.9,58.7,54.5,48.9,100,74,42,30.01,29.90,6,2,9,0.00
2013-7-7,85.6,66.5,51.1,60.5,55.4,51.1,100,72,37,30.01,29.93,6,1,10,0.00
2013-7-8,87.3,65.0,49.7,58.9,54.8,49.7,100,74,35,30.12,30.01,4,1,9,0.00
2013-7-9,93.2,73.4,55.2,65.3,58.0,54.0,100,65,27,30.12,30.03,7,1,9,0.00
2013-7-10,87.5,66.8,54.3,57.3,53.7,44.7,100,67,35,30.11,29.98,5,1,9,0.00
2013-7-11,80.5,65.0,49.2,55.8,49.2,47.0,100,61,33,30.12,30.00,7,2,10,0.00
2013-7-12,79.0,61.3,46.8,56.3,48.6,44.9,100,68,34,30.13,30.03,6,1,10,0.00
2013-7-13,82.0,64.7,47.3,52.9,47.5,41.5,100,60,25,30.20,30.08,5,1,10,0.00
2013-7-14,90.5,68.6,51.1,59.8,50.6,43.8,100,60,20,30.12,30.02,6,1,10,0.00
2013-7-15,87.7,68.7,51.8,55.4,49.3,45.0,88,54,27,30.04,29.86,9,2,10,0.00
2013-7-16,86.7,68.5,58.7,61.3,54.1,48.5,87,62,35,30.02,29.80,7,2,10,0.00
2013-7-17,83.8,66.4,57.0,57.2,55.0,52.5,90,70,35,30.20,30.02,6,2,9,0.00
2013-7-18,87.7,68.0,52.6,60.8,55.3,49.1,100,70,28,30.23,30.12,5,1,9,0.00
2013-7-19,86.9,68.5,50.8,61.6,56.3,50.8,100,69,36,30.18,30.05,6,1,9,0.00
2013-7-20,84.1,64.1,49.9,59.9,55.9,49.9,100,78,44,30.12,29.99,6,1,10,0.00
2013-7-21,88.3,68.8,49.2,59.6,56.3,49.2,100,69,37,30.02,29.94,5,1,8,0.00
2013-7-22,89.2,68.4,52.1,59.3,55.9,51.8,100,70,31,30.09,29.97,6,1,10,0.00
2013-7-23,95.7,73.6,55.0,65.1,57.9,49.7,100,65,27,30.08,29.99,7,1,10,0.00
2013-7-24,94.5,74.0,56.4,64.7,57.5,52.0,100,63,24,30.08,30.01,6,1,10,0.00
2013-7-25,93.7,74.4,55.2,63.4,53.7,46.6,100,55,23,30.13,30.04,6,1,11,0.04
2013-7-26,94.5,71.5,52.8,56.2,48.3,41.9,87,50,17,30.18,30.08,7,2,10,0.00
2013-7-27,84.1,63.9,49.4,57.7,49.9,46.9,100,64,31,30.22,30.06,6,2,10,0.00
2013-7-28,81.5,63.3,47.6,57.2,51.7,47.6,100,70,37,30.09,30.00,7,2,9,0.00
2013-7-29,80.8,61.7,51.6,55.0,53.1,50.2,100,77,39,30.05,29.99,6,1,9,0.00
2013-7-30,85.4,65.7,49.7,61.4,55.1,49.7,100,73,33,30.18,30.05,4,1,9,0.00
2013-7-31,79.2,63.4,53.9,61.5,57.1,53.9,100,82,51,30.14,30.06,7,2,11,0.00
2013-8-1,68.4,62.0,57.8,56.6,55.2,54.0,93,79,66,30.14,30.08,5,2,9,0.00
2013-8-2,71.0,63.7,55.9,58.0,56.1,52.7,100,78,55,30.18,30.13,3,0,9,0.00
2013-8-3,85.6,68.0,54.4,61.0,57.4,53.1,100,73,36,30.14,30.02,6,1,9,0.00
2013-8-4,91.4,72.3,56.9,63.9,59.2,54.3,100,69,31,30.06,29.95,7,2,9,0.00
2013-8-5,93.0,73.0,56.1,63.9,58.0,53.4,100,65,31,30.06,29.96,6,1,8,0.00
2013-8-6,95.7,72.9,53.1,55.3,49.6,43.9,82,49,20,30.04,29.94,4,1,9,0.00
2013-8-7,80.5,67.8,56.0,56.6,53.9,50.0,92,63,39,30.06,29.97,7,2,10,0.00
2013-8-8,87.3,67.0,54.4,60.9,57.7,54.4,100,76,40,30.08,29.96,6,1,9,0.00
2013-8-9,88.9,70.3,58.9,66.6,59.2,56.5,98,72,35,29.98,29.91,5,0,8,0.00
2013-8-10,82.3,67.1,57.0,64.9,59.3,57.0,100,79,48,30.06,29.94,6,2,9,0.10
2013-8-11,78.5,62.8,55.4,60.6,58.2,55.4,100,87,52,30.10,30.03,4,1,9,0.00
2013-8-12,79.7,65.6,57.7,61.6,57.6,51.6,100,78,46,30.10,30.06,6,2,8,0.00
2013-8-13,88.3,67.6,50.6,63.8,54.2,48.3,100,68,27,30.13,29.96,5,1,8,0.00
2013-8-14,85.9,66.8,54.9,64.3,57.2,51.7,100,75,31,30.00,29.97,7,1,9,0.00
2013-8-15,81.7,70.4,63.8,68.6,65.4,63.8,100,86,57,30.02,29.98,5,1,7,0.00
2013-8-16,86.7,71.6,63.6,69.6,62.7,51.5,100,76,46,30.07,30.00,6,1,10,0.00
2013-8-17,84.9,68.7,54.9,64.1,57.7,52.8,100,72,40,30.14,30.06,8,2,10,0.00
2013-8-18,87.5,71.5,56.9,61.1,58.4,56.5,100,68,38,30.18,30.08,7,1,9,0.00
2013-8-19,89.1,70.5,56.9,63.9,57.2,52.7,100,68,35,30.17,30.08,5,1,9,0.00
2013-8-20,85.3,68.6,50.1,60.7,51.6,45.7,100,60,26,30.16,30.04,6,1,10,0.00
2013-8-21,91.9,71.6,53.8,57.2,52.6,48.6,86,55,26,30.04,29.90,4,1,9,0.00
2013-8-22,85.0,70.1,57.4,60.2,56.2,53.5,98,64,35,29.94,29.89,7,2,8,0.00
2013-8-23,77.8,65.6,57.1,59.8,57.3,54.8,100,77,48,29.98,29.92,7,2,10,0.00
2013-8-24,76.3,66.4,59.4,63.6,57.6,54.2,100,76,48,29.95,29.90,5,1,9,0.00
2013-8-25,69.5,61.5,53.9,64.1,57.9,53.9,100,89,71,29.97,29.92,3,0,6,0.05
2013-8-26,79.3,62.8,53.0,64.5,56.6,47.3,100,85,34,30.00,29.93,6,1,14,0.23
2013-8-27,81.4,68.2,60.7,68.1,61.4,56.4,100,81,50,29.99,29.86,6,1,9,0.01
2013-8-28,78.9,66.7,57.8,69.8,61.7,56.4,100,86,53,29.94,29.87,5,1,6,0.07
2013-8-29,77.9,67.2,61.6,70.9,62.6,55.2,100,86,64,30.10,29.88,8,1,13,0.12
2013-8-30,83.2,68.6,59.2,67.0,58.6,50.0,94,73,41,30.19,30.08,5,0,8,0.00
2013-8-31,91.1,70.9,56.3,63.9,58.1,54.6,100,69,30,30.08,29.87,7,1,10,0.00
2013-9-1,86.7,68.8,53.4,63.3,55.7,52.8,100,68,33,29.94,29.86,6,2,11,0.00
2013-9-2,79.6,68.7,60.9,66.3,58.1,51.4,100,72,40,29.97,29.90,6,1,10,0.01
2013-9-3,82.3,68.7,58.8,59.7,55.2,51.3,94,65,36,30.03,29.95,8,1,9,0.00
2013-9-4,76.8,67.4,58.0,62.9,57.8,55.1,100,74,48,30.08,30.01,6,1,9,0.00
2013-9-5,69.2,62.5,58.8,68.1,59.9,51.6,100,92,74,30.06,30.00,6,1,10,0.93
2013-9-6,70.4,63.0,56.9,65.4,57.0,49.4,100,81,68,30.17,30.05,6,2,9,0.55
2013-9-7,84.8,65.4,55.2,65.9,58.4,51.1,100,81,43,30.13,30.00,6,1,9,0.00
2013-9-8,87.1,68.5,57.5,67.1,61.0,56.0,100,81,38,30.11,30.02,6,1,11,0.00
2013-9-9,86.2,66.7,56.9,67.1,61.7,53.9,100,86,46,30.07,29.96,5,1,7,0.00
2013-9-10,92.6,72.7,58.9,70.2,62.5,58.3,100,75,33,29.96,29.82,3,1,9,0.00
2013-9-11,96.8,76.2,61.9,64.9,60.1,57.4,89,62,30,29.97,29.84,7,2,10,0.00
2013-9-12,86.0,70.1,57.7,64.8,60.5,57.5,100,74,47,30.04,29.95,5,1,8,0.00
2013-9-13,79.0,62.5,54.9,66.7,60.4,54.9,100,94,59,29.99,29.87,4,0,7,0.00
2013-9-14,81.7,64.7,57.2,66.3,59.8,54.4,100,86,52,29.88,29.75,4,0,7,0.01
2013-9-15,68.6,61.9,57.4,65.2,60.5,57.4,100,95,77,29.92,29.74,6,1,9,0.00
2013-9-16,68.1,62.3,56.7,63.3,59.5,56.7,100,91,69,30.01,29.92,6,1,10,0.00
2013-9-17,69.5,61.0,54.4,62.3,55.1,50.3,100,83,53,30.03,29.89,7,1,9,0.00
2013-9-18,76.3,60.9,51.6,58.5,52.9,44.7,100,79,37,30.13,30.02,6,1,9,0.00
2013-9-19,79.9,61.1,46.9,58.4,51.5,46.9,100,75,38,30.02,29.79,6,1,8,0.00
2013-9-20,74.5,58.9,48.3,61.9,55.4,48.3,100,90,53,29.79,29.69,7,1,12,0.02
2013-9-21,66.9,57.6,51.9,62.7,56.1,51.9,100,95,73,29.79,29.70,6,1,9,0.02
2013-9-22,59.6,56.1,50.5,58.9,55.7,50.5,100,99,84,29.88,29.70,13,2,18,0.42
2013-9-23,62.6,56.7,53.1,61.2,55.9,51.6,100,97,82,30.01,29.88,6,2,7,0.32
2013-9-24,62.4,53.8,49.7,58.7,53.2,49.7,100,98,73,30.00,29.88,4,0,10,0.27
2013-9-25,62.5,53.3,48.3,54.9,50.9,48.3,100,93,63,30.05,29.87,6,1,7,0.05
2013-9-26,69.3,53.5,42.9,60.4,49.4,41.8,100,88,55,30.18,30.04,7,1,9,0.01
2013-9-27,57.0,51.4,43.6,56.1,51.1,43.6,100,99,92,30.18,29.93,7,2,17,0.18
2013-9-28,61.5,56.8,50.9,61.5,56.5,49.5,100,99,93,29.93,29.54,10,3,19,1.32
2013-9-29,55.2,53.2,51.2,54.8,52.6,47.2,100,98,85,29.70,29.40,12,3,25,1.67
2013-9-30,60.6,52.5,47.9,56.9,51.5,47.9,100,97,77,30.01,29.62,6,2,16,0.49
2013-10-1,62.6,50.8,43.4,56.1,46.0,37.9,100,85,61,30.20,29.98,6,1,9,0.31
2013-10-2,55.7,46.5,41.9,55.4,39.5,31.6,100,78,52,30.19,30.09,3,0,8,0.20
2013-10-3,61.5,46.6,36.9,58.9,37.5,23.9,100,72,43,30.42,30.18,4,0,7,0.00
2013-10-4,65.9,47.0,38.6,57.5,38.3,21.8,100,74,40,30.45,30.33,4,1,7,0.00
2013-10-5,74.5,53.7,42.2,58.6,45.0,30.3,100,75,42,30.33,30.14,4,0,7,0.00
2013-10-6,74.8,52.8,41.8,68.9,41.1,22.4,100,67,34,30.14,30.00,5,1,10,0.00
2013-10-7,63.7,54.9,49.6,57.1,50.4,43.1,100,86,60,30.15,30.00,7,3,11,0.04
2013-10-8,56.8,51.4,42.5,55.6,50.8,38.2,100,98,82,30.16,30.01,6,2,9,0.02
2013-10-9,62.7,50.9,39.7,56.1,43.9,25.4,100,79,46,30.10,29.98,3,1,9,0.00
2013-10-10,62.6,51.4,44.3,56.1,46.6,35.3,100,84,59,30.11,29.96,6,1,8,0.00
2013-10-11,59.1,49.7,42.9,51.6,45.4,37.8,100,87,57,30.16,30.09,4,0,7,0.00
2013-10-12,58.1,49.9,44.5,57.5,43.3,33.6,100,79,54,30.17,30.07,3,0,7,0.01
2013-10-13,62.9,48.6,38.9,57.8,41.1,23.1,100,77,39,30.30,30.17,6,0,7,0.00
2013-10-14,68.6,51.2,39.7,54.9,44.7,33.8,100,81,48,30.36,30.30,6,1,8,0.00
2013-10-15,69.0,52.5,42.4,49.0,45.3,39.7,100,81,37,30.32,30.13,5,1,9,0.00
2013-10-16,66.4,51.6,40.0,58.0,46.5,28.1,100,85,44,30.17,30.10,6,1,7,0.00
2013-10-17,63.3,48.7,40.5,58.2,39.6,20.7,100,73,36,30.23,30.16,3,0,7,0.00
2013-10-18,71.4,54.4,43.2,56.3,46.6,41.6,100,79,40,30.18,30.10,4,2,9,0.01
2013-10-19,66.9,50.6,39.8,57.5,46.2,34.9,100,87,53,30.16,30.10,3,1,7,0.00
2013-10-20,61.7,49.3,40.9,57.9,44.0,31.6,100,82,61,30.15,30.06,3,0,7,0.00
2013-10-21,68.6,51.5,39.9,66.7,46.3,32.4,100,83,62,30.09,30.00,3,1,6,0.01
2013-10-22,72.4,57.0,45.1,60.0,51.4,45.1,100,85,48,30.05,29.98,4,1,6,0.00
2013-10-23,68.4,54.0,42.8,63.0,50.5,40.7,100,90,58,30.02,29.96,3,1,6,0.00
2013-10-24,61.7,49.9,39.8,57.2,47.5,36.0,100,92,73,30.10,29.99,2,0,7,0.00
2013-10-25,53.1,49.9,44.2,53.1,48.3,43.2,100,95,86,30.28,30.10,1,0,5,0.01
2013-10-26,53.2,49.9,47.1,52.0,49.5,47.1,100,98,89,30.30,30.18,3,0,6,0.00
2013-10-27,56.6,50.4,46.6,54.9,48.3,44.3,100,93,73,30.18,29.85,8,1,14,0.02
2013-10-28,61.6,48.3,39.6,49.4,39.7,32.9,100,76,38,29.92,29.83,5,1,13,0.00
2013-10-29,58.7,44.4,34.6,39.1,35.4,32.6,97,74,40,30.04,29.92,3,1,8,0.00
2013-10-30,59.5,44.7,31.1,48.5,40.1,31.1,100,86,53,30.18,30.04,4,0,7,0.00
2013-10-31,59.7,53.0,49.7,53.9,50.0,46.1,100,90,78,30.28,30.16,4,1,8,0.00
2013-11-1,59.9,53.3,50.2,53.9,51.8,50.2,100,95,74,30.29,29.92,5,0,6,0.07
2013-11-2,55.5,49.4,43.6,51.6,47.9,43.4,100,95,69,30.07,29.75,9,4,17,0.58
2013-11-3,50.9,45.2,39.6,45.9,43.4,39.6,100,94,79,30.16,30.06,7,3,9,0.02
2013-11-4,51.2,47.1,44.2,50.7,47.0,44.2,100,100,96,30.17,30.10,4,1,13,0.05
2013-11-5,56.6,51.6,48.6,56.0,51.6,48.6,100,100,98,30.25,30.09,5,1,10,0.04
2013-11-6,52.7,50.7,48.9,52.5,50.7,48.9,100,100,99,30.30,30.09,1,0,3,0.37
2013-11-7,55.0,50.9,47.9,55.0,50.0,45.3,100,97,83,30.13,29.90,7,4,17,0.45
2013-11-8,52.3,48.3,43.6,51.4,48.0,43.6,100,99,92,30.20,30.12,4,1,8,0.01
2013-11-9,49.3,45.7,41.5,49.1,45.5,41.5,100,100,95,30.12,30.04,3,0,6,0.00
2013-11-10,55.4,48.2,42.9,54.8,47.2,42.9,100,97,80,30.09,30.04,5,0,7,0.00
2013-11-11,58.9,48.8,38.2,56.4,46.2,38.2,100,91,73,30.14,30.02,3,0,7,0.00
2013-11-12,54.4,49.8,46.7,54.4,49.6,45.1,100,100,88,30.43,30.07,1,0,6,0.28
2013-11-13,49.5,47.1,44.8,49.2,46.8,44.3,100,99,94,30.48,30.30,2,0,6,0.01
2013-11-14,52.2,46.6,40.6,52.2,46.5,40.6,100,99,95,30.30,30.10,5,1,6,0.00
2013-11-15,47.9,43.0,35.1,47.8,42.8,35.1,100,99,91,30.11,29.57,8,3,12,0.15
2013-11-16,49.9,46.9,42.5,48.5,44.1,40.9,100,90,78,29.86,29.56,8,4,14,0.02
2013-11-17,54.0,49.3,43.7,49.2,47.1,43.4,100,92,82,30.00,29.86,7,3,15,0.02
2013-11-18,52.6,50.6,49.3,52.1,49.1,46.2,100,94,86,29.98,29.73,10,3,21,0.24
2013-11-19,52.7,47.6,33.8,52.7,47.6,33.8,100,100,100,30.02,29.71,5,1,13,0.52
2013-11-20,45.6,35.7,29.2,41.8,33.1,27.7,100,91,73,30.36,30.02,4,1,15,0.00
2013-11-21,45.5,34.5,26.7,28.9,23.8,19.0,91,67,38,30.53,30.36,7,1,9,0.00
2013-11-22,47.3,36.6,28.4,28.5,21.8,18.8,77,56,41,30.53,30.36,6,1,9,0.00
2013-11-23,52.8,39.9,34.2,28.5,23.7,19.8,68,53,37,30.36,30.14,6,1,12,0.00
2013-11-24,49.3,35.5,29.4,35.1,28.7,24.5,100,78,45,30.25,30.12,4,1,6,0.00
2013-11-25,48.2,35.3,28.2,43.7,32.7,28.2,100,92,60,30.32,30.25,3,0,6,0.00
2013-11-26,45.6,36.3,28.9,41.9,34.2,28.9,100,93,69,30.26,30.05,3,1,6,0.00
2013-11-27,50.9,40.7,33.5,44.6,36.2,33.4,100,85,58,30.05,29.95,6,1,7,0.00
2013-11-28,50.8,39.0,32.5,41.8,35.0,32.0,100,87,57,30.18,30.00,4,1,6,0.00
2013-11-29,42.9,36.6,28.9,42.9,36.6,28.9,100,100,97,30.34,30.17,5,1,7,0.01
2013-11-30,49.3,43.3,37.9,47.1,43.0,37.9,100,99,91,30.37,30.21,4,0,7,0.01
2013-12-1,56.1,53.2,46.9,55.9,53.2,46.9,100,100,99,30.20,29.96,9,5,14,1.03
2013-12-2,50.9,41.5,33.2,50.7,40.5,33.2,100,96,83,30.03,29.94,7,3,12,0.20
2013-12-3,42.7,32.4,24.9,39.7,30.3,24.9,100,93,64,30.25,30.03,7,1,11,0.00
2013-12-4,35.9,26.8,21.6,32.3,23.0,19.1,100,87,58,30.29,30.24,4,1,10,0.00
2013-12-5,30.8,23.1,17.9,24.4,20.8,17.9,100,92,65,30.27,30.12,5,1,8,0.00
2013-12-6,29.1,25.4,22.3,24.9,20.4,14.6,100,82,67,30.12,29.91,6,1,13,0.00
2013-12-7,27.9,20.5,14.5,14.4,12.0,8.8,91,71,47,30.39,30.04,11,1,13,0.00
2013-12-8,25.9,17.7,10.6,16.6,13.8,10.6,100,86,59,30.55,30.39,2,0,6,0.00
2013-12-9,27.5,20.4,12.2,24.5,18.7,12.2,100,94,81,30.56,30.47,4,0,6,0.00
2013-12-10,32.4,27.2,22.9,28.4,26.0,22.9,100,96,83,30.50,30.35,6,0,7,0.00
2013-12-11,29.4,23.5,19.4,29.4,23.5,19.4,100,100,100,30.35,30.17,4,1,7,0.00
2013-12-12,32.3,26.4,19.5,32.3,26.4,19.5,100,100,100,30.18,30.07,3,0,7,0.01
2013-12-13,45.1,38.2,32.3,45.1,38.2,32.3,100,100,100,30.40,30.16,2,0,5,0.08
2013-12-14,40.8,38.4,35.8,40.8,38.4,35.8,100,100,100,30.43,30.33,5,0,6,0.00
2013-12-15,44.4,40.3,36.9,44.4,40.3,36.9,100,100,100,30.45,30.38,2,0,6,0.01
2013-12-16,42.9,40.5,38.4,42.9,40.4,38.4,100,100,97,30.44,30.22,3,0,6,0.01
2013-12-17,38.4,36.0,34.9,38.4,36.0,34.9,100,100,100,30.22,30.15,2,0,6,0.02
2013-12-18,41.4,36.5,30.5,41.2,36.4,30.5,100,100,95,30.15,30.02,2,0,5,0.09
2013-12-19,38.5,31.6,27.9,38.5,31.6,27.9,100,100,100,30.27,30.08,3,0,5,0.01
2013-12-20,46.8,36.3,31.2,46.8,36.1,31.2,100,100,95,30.18,29.86,7,1,12,0.07
2013-12-21,52.1,47.9,45.6,49.5,46.9,45.5,100,97,83,30.21,29.91,7,4,10,0.00
2013-12-22,54.4,48.1,43.2,50.9,47.5,43.2,100,98,88,30.34,30.21,6,2,7,0.00
2013-12-23,52.7,45.9,35.1,52.7,45.7,35.1,100,99,92,30.51,30.30,6,2,11,0.04
2013-12-24,41.5,35.3,32.3,41.5,35.3,32.3,100,100,100,30.57,30.44,3,0,7,0.00
2013-12-25,37.4,35.5,33.8,37.4,35.5,33.8,100,100,100,30.44,30.36,2,0,5,0.00
2013-12-26,34.7,33.5,31.6,34.7,33.5,31.6,100,100,100,30.36,30.20,4,0,6,0.01
2013-12-27,34.3,32.3,30.4,34.3,32.3,30.4,100,100,100,30.36,30.16,3,0,6,0.00
2013-12-28,43.3,35.9,27.3,43.3,35.8,27.3,100,100,95,30.46,30.36,5,0,6,0.01
2013-12-29,39.4,36.6,32.9,39.4,36.6,32.9,100,100,100,30.43,30.25,3,0,4,0.00
2013-12-30,39.9,37.1,34.5,39.9,37.1,34.5,100,100,100,30.25,30.16,3,0,6,0.00
2013-12-31,45.3,40.4,37.4,45.3,40.4,37.4,100,100,100,30.31,30.20,4,0,6,0.04
2014-1-1,42.8,38.9,33.9,42.8,38.8,33.9,100,100,94,30.32,30.23,3,0,6,0.00
2014-1-2,43.5,39.0,37.1,41.3,38.5,37.1,100,98,85,30.23,30.01,4,0,7,0.02